TimeEDT,TemperatureF,Dew PointF,Humidity,Sea Level PressureIn,VisibilityMPH,Wind Direction,Wind SpeedMPH,Gust SpeedMPH,PrecipitationIn,Events,Conditions,WindDirDegrees,DateUTC
12:15 AM,55.4,48.2,77,29.78,10.0,East,3.5,-,N/A,,Overcast,80,2012-10-02 04:15:00
12:35 AM,53.6,48.2,82,29.79,10.0,Calm,Calm,-,N/A,,Overcast,0,2012-10-02 04:35:00
12:55 AM,53.6,48.2,82,29.79,10.0,East,5.8,-,N/A,,Overcast,80,2012-10-02 04:55:00
1:15 AM,53.6,46.4,77,29.79,10.0,East,6.9,-,N/A,,Overcast,80,2012-10-02 05:15:00
1:35 AM,53.6,46.4,77,29.80,10.0,Calm,Calm,-,N/A,,Overcast,0,2012-10-02 05:35:00
2:15 AM,53.6,50.0,88,29.79,10.0,Calm,Calm,-,N/A,,Overcast,0,2012-10-02 06:15:00
3:15 AM,51.8,50.0,94,29.78,7.0,NNE,4.6,-,0.04,Rain,Rain,30,2012-10-02 07:15:00
3:35 AM,51.8,50.0,94,29.77,5.0,NNE,5.8,-,0.10,Rain,Rain,30,2012-10-02 07:35:00
3:55 AM,51.8,51.8,100,29.78,7.0,ENE,3.5,-,0.12,Rain,Rain,60,2012-10-02 07:55:00
4:15 AM,51.8,51.8,100,29.77,7.0,NNE,4.6,-,N/A,Rain,Rain,30,2012-10-02 08:15:00
4:35 AM,51.8,50.0,94,29.77,7.0,NNE,3.5,-,N/A,,Mostly Cloudy,20,2012-10-02 08:35:00
4:55 AM,50.0,50.0,100,29.77,5.0,North,4.6,-,N/A,,Mostly Cloudy,360,2012-10-02 08:55:00
5:15 AM,51.8,51.8,100,29.78,5.0,North,3.5,-,N/A,,Overcast,10,2012-10-02 09:15:00
5:35 AM,51.8,51.8,100,29.78,7.0,NNE,4.6,-,N/A,,Overcast,20,2012-10-02 09:35:00
5:55 AM,51.8,51.8,100,29.78,7.0,NE,4.6,-,N/A,,Overcast,40,2012-10-02 09:55:00
6:15 AM,51.8,51.8,100,29.78,7.0,NNE,8.1,-,N/A,,Overcast,20,2012-10-02 10:15:00
6:35 AM,51.8,50.0,94,29.78,10.0,NNE,5.8,-,N/A,,Overcast,30,2012-10-02 10:35:00
6:55 AM,51.8,50.0,94,29.79,10.0,NNE,5.8,-,N/A,,Overcast,20,2012-10-02 10:55:00
7:15 AM,51.8,50.0,94,29.79,10.0,NNE,8.1,-,N/A,,Overcast,20,2012-10-02 11:15:00
7:35 AM,51.8,50.0,94,29.80,10.0,NNE,8.1,-,N/A,,Overcast,20,2012-10-02 11:35:00
7:55 AM,51.8,50.0,94,29.80,10.0,NNE,8.1,-,N/A,,Overcast,20,2012-10-02 11:55:00
8:15 AM,51.8,50.0,94,29.81,10.0,NNE,6.9,-,N/A,,Overcast,30,2012-10-02 12:15:00
8:35 AM,51.8,50.0,94,29.81,10.0,NNE,11.5,-,N/A,,Overcast,30,2012-10-02 12:35:00
8:55 AM,51.8,50.0,94,29.81,10.0,NNE,9.2,-,N/A,,Overcast,20,2012-10-02 12:55:00
9:15 AM,51.8,50.0,94,29.81,10.0,NNE,8.1,-,N/A,,Overcast,20,2012-10-02 13:15:00
9:35 AM,53.6,50.0,88,29.81,10.0,NNE,8.1,-,N/A,,Overcast,30,2012-10-02 13:35:00
9:55 AM,53.6,50.0,88,29.81,10.0,NNE,9.2,-,N/A,,Overcast,20,2012-10-02 13:55:00
10:15 AM,53.6,50.0,88,29.82,10.0,NNE,6.9,-,N/A,,Overcast,30,2012-10-02 14:15:00
10:35 AM,53.6,51.8,94,29.81,10.0,NNE,6.9,-,N/A,,Overcast,20,2012-10-02 14:35:00
10:55 AM,55.4,51.8,88,29.82,10.0,NE,8.1,-,N/A,,Overcast,40,2012-10-02 14:55:00
11:15 AM,55.4,51.8,88,29.81,10.0,NNE,5.8,-,N/A,,Overcast,30,2012-10-02 15:15:00
11:35 AM,55.4,51.8,88,29.82,10.0,NNE,5.8,9.2,N/A,,Overcast,30,2012-10-02 15:35:00
11:55 AM,55.4,51.8,88,29.82,10.0,ENE,6.9,-,N/A,,Overcast,60,2012-10-02 15:55:00
12:15 PM,55.4,51.8,88,29.82,10.0,NE,6.9,-,N/A,,Overcast,50,2012-10-02 16:15:00
12:35 PM,55.4,51.8,88,29.82,10.0,NNE,9.2,-,N/A,,Overcast,30,2012-10-02 16:35:00
12:55 PM,57.2,51.8,82,29.82,10.0,ENE,10.4,-,N/A,,Overcast,60,2012-10-02 16:55:00
1:15 PM,55.4,53.6,94,29.82,4.0,NE,8.1,-,N/A,Rain,Rain,50,2012-10-02 17:15:00
1:35 PM,55.4,53.6,94,29.82,7.0,NE,8.1,-,N/A,,Overcast,50,2012-10-02 17:35:00
1:55 PM,55.4,53.6,94,29.82,5.0,NE,5.8,-,N/A,,Overcast,50,2012-10-02 17:55:00
2:15 PM,55.4,53.6,94,29.81,3.0,NE,8.1,-,N/A,,Light Drizzle,50,2012-10-02 18:15:00
2:35 PM,57.2,55.4,94,29.80,7.0,NE,9.2,-,N/A,,Overcast,50,2012-10-02 18:35:00
2:55 PM,57.2,53.6,88,29.81,10.0,NE,4.6,-,N/A,,Overcast,50,2012-10-02 18:55:00
3:15 PM,57.2,53.6,88,29.81,10.0,NE,8.1,-,N/A,,Overcast,50,2012-10-02 19:15:00
3:35 PM,57.2,55.4,94,29.81,5.0,NE,8.1,-,N/A,Rain,Rain,50,2012-10-02 19:35:00
4:15 PM,57.2,55.4,94,29.81,10.0,NE,8.1,-,N/A,,Overcast,50,2012-10-02 20:15:00
4:35 PM,59.0,55.4,88,29.81,10.0,NNE,5.8,-,N/A,,Overcast,30,2012-10-02 20:35:00
4:55 PM,59.0,55.4,88,29.81,10.0,NE,5.8,-,N/A,,Overcast,40,2012-10-02 20:55:00
5:15 PM,59.0,55.4,88,29.81,10.0,NE,5.8,-,N/A,,Overcast,50,2012-10-02 21:15:00
5:35 PM,59.0,55.4,88,29.82,7.0,ENE,6.9,-,N/A,,Overcast,60,2012-10-02 21:35:00
5:55 PM,59.0,55.4,88,29.83,7.0,ENE,6.9,-,N/A,,Overcast,60,2012-10-02 21:55:00
6:15 PM,59.0,55.4,88,29.83,7.0,ENE,6.9,-,N/A,,Overcast,70,2012-10-02 22:15:00
6:35 PM,59.0,55.4,88,29.83,5.0,ENE,6.9,-,N/A,,Overcast,60,2012-10-02 22:35:00
6:55 PM,59.0,55.4,88,29.84,5.0,ENE,3.5,-,N/A,,Overcast,60,2012-10-02 22:55:00
7:15 PM,59.0,55.4,88,29.84,5.0,ENE,5.8,-,N/A,,Overcast,60,2012-10-02 23:15:00
7:35 PM,59.0,55.4,88,29.85,7.0,ENE,4.6,-,N/A,,Overcast,70,2012-10-02 23:35:00
7:55 PM,59.0,55.4,88,29.85,7.0,ENE,4.6,-,N/A,,Overcast,70,2012-10-02 23:55:00
8:15 PM,59.0,55.4,88,29.86,7.0,ENE,3.5,-,N/A,,Overcast,60,2012-10-03 00:15:00
8:35 PM,59.0,55.4,88,29.86,5.0,ENE,4.6,-,N/A,,Overcast,60,2012-10-03 00:35:00
8:55 PM,59.0,55.4,88,29.86,5.0,Calm,Calm,-,N/A,,Overcast,0,2012-10-03 00:55:00
9:15 PM,59.0,55.4,88,29.87,5.0,Calm,Calm,-,N/A,,Overcast,0,2012-10-03 01:15:00
9:35 PM,59.0,55.4,88,29.88,5.0,Calm,Calm,-,N/A,,Overcast,0,2012-10-03 01:35:00
10:15 PM,59.0,57.2,94,29.89,1.5,Calm,Calm,-,0.02,Rain,Heavy Rain,0,2012-10-03 02:15:00
10:35 PM,59.0,57.2,94,29.88,1.8,NE,3.5,-,0.02,,Light Drizzle,50,2012-10-03 02:35:00
10:55 PM,59.0,57.2,94,29.89,2.0,ENE,4.6,-,0.02,,Overcast,60,2012-10-03 02:55:00
11:15 PM,59.0,57.2,94,29.89,2.0,ENE,3.5,-,N/A,,Overcast,70,2012-10-03 03:15:00
11:35 PM,59.0,57.2,94,29.89,2.0,ENE,4.6,-,N/A,,Overcast,60,2012-10-03 03:35:00
11:55 PM,59.0,57.2,94,29.89,2.0,East,4.6,-,N/A,,Overcast,80,2012-10-03 03:55:00